Time,TemperatureF,DewpointF,PressureIn,WindDirection,WindDirectionDegrees,WindSpeedMPH,WindSpeedGustMPH,Humidity,HourlyPrecipIn,Conditions,Clouds,dailyrainin,SoftwareType,DateUTC
2013-07-28 00:01:00,68.6,68.0,29.95,NE,44,0.0,0.0,98,0.00,,,0.00,Wunderground v.1.15,2013-07-28 04:01:00,
2013-07-28 00:02:00,68.6,68.0,29.95,NE,44,0.0,0.0,98,0.00,,,0.00,Wunderground v.1.15,2013-07-28 04:02:00,
2013-07-28 00:03:00,68.6,68.0,29.95,NE,44,0.0,0.0,98,0.00,,,0.00,Wunderground v.1.15,2013-07-28 04:03:00,
2013-07-28 00:04:00,68.6,68.0,29.95,NE,44,0.0,0.0,98,0.00,,,0.00,Wunderground v.1.15,2013-07-28 04:04:00,
2013-07-28 00:08:00,68.7,68.1,29.95,NE,44,0.0,0.0,98,0.00,,,0.00,Wunderground v.1.15,2013-07-28 04:08:00,
2013-07-28 00:13:00,68.7,68.1,29.95,NE,44,0.0,0.0,98,0.00,,,0.00,Wunderground v.1.15,2013-07-28 04:13:00,
2013-07-28 00:19:00,68.8,68.2,29.95,NE,44,0.0,0.0,98,0.00,,,0.00,Wunderground v.1.15,2013-07-28 04:19:00,
2013-07-28 00:25:00,68.8,68.2,29.95,NE,44,0.0,0.0,98,0.00,,,0.00,Wunderground v.1.15,2013-07-28 04:25:00,
2013-07-28 00:31:00,68.8,68.2,29.95,NE,44,0.0,0.0,98,0.00,,,0.00,Wunderground v.1.15,2013-07-28 04:31:00,
2013-07-28 00:37:00,68.8,68.2,29.94,NE,44,0.0,0.0,98,0.00,,,0.00,Wunderground v.1.15,2013-07-28 04:37:00,
2013-07-28 00:43:00,68.8,68.2,29.94,NE,44,0.0,0.0,98,0.00,,,0.00,Wunderground v.1.15,2013-07-28 04:43:00,
2013-07-28 00:49:00,68.7,68.1,29.94,NE,44,0.0,2.0,98,0.00,,,0.00,Wunderground v.1.15,2013-07-28 04:49:00,
2013-07-28 00:55:00,68.6,68.0,29.94,NE,44,0.0,0.0,98,0.00,,,0.00,Wunderground v.1.15,2013-07-28 04:55:00,
2013-07-28 01:00:00,68.6,68.0,29.94,NE,44,0.0,0.0,98,0.00,,,0.00,Wunderground v.1.15,2013-07-28 05:00:00,
2013-07-28 01:05:00,68.6,68.0,29.94,NE,44,0.0,0.0,98,0.00,,,0.00,Wunderground v.1.15,2013-07-28 05:05:00,
2013-07-28 01:11:00,68.6,68.0,29.94,NE,44,0.0,0.0,98,0.00,,,0.00,Wunderground v.1.15,2013-07-28 05:11:00,
2013-07-28 01:16:00,68.6,68.0,29.94,NE,44,0.0,0.0,98,0.00,,,0.00,Wunderground v.1.15,2013-07-28 05:16:00,
2013-07-28 01:22:00,68.5,67.9,29.94,NE,44,0.0,0.0,98,0.00,,,0.00,Wunderground v.1.15,2013-07-28 05:22:00,
2013-07-28 01:28:00,68.5,67.9,29.94,NE,44,0.0,0.0,98,0.00,,,0.00,Wunderground v.1.15,2013-07-28 05:28:00,
2013-07-28 01:34:00,68.5,67.9,29.94,NE,44,0.0,1.0,98,0.00,,,0.00,Wunderground v.1.15,2013-07-28 05:34:00,
2013-07-28 01:40:00,68.5,67.9,29.94,NE,44,0.0,1.0,98,0.00,,,0.00,Wunderground v.1.15,2013-07-28 05:40:00,
2013-07-28 01:46:00,68.6,68.0,29.93,NE,44,0.0,1.0,98,0.00,,,0.00,Wunderground v.1.15,2013-07-28 05:46:00,
2013-07-28 01:52:00,68.7,68.1,29.93,NE,44,0.0,1.0,98,0.00,,,0.00,Wunderground v.1.15,2013-07-28 05:52:00,
2013-07-28 01:58:00,68.7,68.1,29.93,NE,44,0.0,1.0,98,0.00,,,0.00,Wunderground v.1.15,2013-07-28 05:58:00,
2013-07-28 02:03:00,68.7,68.1,29.93,NE,44,0.0,0.0,98,0.00,,,0.00,Wunderground v.1.15,2013-07-28 06:03:00,
2013-07-28 02:09:00,68.7,68.1,29.93,NE,44,0.0,0.0,98,0.00,,,0.00,Wunderground v.1.15,2013-07-28 06:09:00,
2013-07-28 02:14:00,68.7,68.1,29.92,NE,44,0.0,0.0,98,0.00,,,0.00,Wunderground v.1.15,2013-07-28 06:14:00,
2013-07-28 02:19:00,68.8,68.2,29.92,NE,44,0.0,0.0,98,0.00,,,0.00,Wunderground v.1.15,2013-07-28 06:19:00,
2013-07-28 02:25:00,68.8,68.2,29.93,NE,44,0.0,0.0,98,0.00,,,0.00,Wunderground v.1.15,2013-07-28 06:25:00,
2013-07-28 02:30:00,68.8,68.2,29.92,NE,44,0.0,0.0,98,0.00,,,0.00,Wunderground v.1.15,2013-07-28 06:30:00,
2013-07-28 02:36:00,68.8,68.2,29.92,NE,44,0.0,1.0,98,0.00,,,0.00,Wunderground v.1.15,2013-07-28 06:36:00,
2013-07-28 02:42:00,68.8,68.2,29.92,NE,44,0.0,1.0,98,0.00,,,0.00,Wunderground v.1.15,2013-07-28 06:42:00,
2013-07-28 02:48:00,68.6,68.0,29.92,NE,44,0.0,1.0,98,0.00,,,0.00,Wunderground v.1.15,2013-07-28 06:48:00,
2013-07-28 02:53:00,68.6,68.0,29.92,NE,44,0.0,1.0,98,0.00,,,0.00,Wunderground v.1.15,2013-07-28 06:53:00,
2013-07-28 02:59:00,68.6,68.0,29.92,NE,44,0.0,1.0,98,0.00,,,0.00,Wunderground v.1.15,2013-07-28 06:59:00,
2013-07-28 03:05:00,68.6,68.0,29.92,ENE,76,0.0,0.0,98,0.00,,,0.00,Wunderground v.1.15,2013-07-28 07:05:00,
2013-07-28 03:11:00,68.6,68.0,29.92,ENE,76,0.0,0.0,98,0.00,,,0.00,Wunderground v.1.15,2013-07-28 07:11:00,
2013-07-28 03:17:00,68.6,68.0,29.92,ENE,76,0.0,0.0,98,0.00,,,0.00,Wunderground v.1.15,2013-07-28 07:17:00,
2013-07-28 03:23:00,68.7,68.1,29.92,ENE,76,0.0,1.0,98,0.00,,,0.00,Wunderground v.1.15,2013-07-28 07:23:00,
2013-07-28 03:29:00,68.8,68.2,29.92,SE,129,1.0,3.0,98,0.00,,,0.00,Wunderground v.1.15,2013-07-28 07:29:00,
2013-07-28 03:35:00,68.8,68.2,29.92,SE,130,2.0,3.0,98,0.00,,,0.00,Wunderground v.1.15,2013-07-28 07:35:00,
2013-07-28 03:42:00,68.9,68.3,29.92,South,171,2.0,4.0,98,0.00,,,0.00,Wunderground v.1.15,2013-07-28 07:42:00,
2013-07-28 03:48:00,68.9,68.3,29.92,South,171,2.0,4.0,98,0.00,,,0.00,Wunderground v.1.15,2013-07-28 07:48:00,
2013-07-28 03:54:00,69.1,68.5,29.93,South,186,2.0,4.0,98,0.00,,,0.00,Wunderground v.1.15,2013-07-28 07:54:00,
2013-07-28 04:00:00,69.2,68.6,29.93,SSW,200,3.0,3.0,98,0.00,,,0.00,Wunderground v.1.15,2013-07-28 08:00:00,
2013-07-28 04:06:00,69.3,68.7,29.93,SSW,200,3.0,4.0,98,0.00,,,0.00,Wunderground v.1.15,2013-07-28 08:06:00,
2013-07-28 04:12:00,69.3,68.7,29.93,SSW,201,3.0,3.0,98,0.00,,,0.00,Wunderground v.1.15,2013-07-28 08:12:00,
2013-07-28 04:17:00,69.4,68.8,29.93,SSW,201,2.0,4.0,98,0.00,,,0.00,Wunderground v.1.15,2013-07-28 08:17:00,
2013-07-28 04:23:00,69.4,68.8,29.93,SSW,201,3.0,4.0,98,0.00,,,0.00,Wunderground v.1.15,2013-07-28 08:23:00,
2013-07-28 04:28:00,69.3,68.7,29.92,SSW,201,2.0,4.0,98,0.00,,,0.00,Wunderground v.1.15,2013-07-28 08:28:00,
2013-07-28 04:34:00,69.3,68.7,29.92,SW,229,2.0,3.0,98,0.00,,,0.00,Wunderground v.1.15,2013-07-28 08:34:00,
2013-07-28 04:40:00,69.1,68.5,29.93,SW,216,3.0,3.0,98,0.00,,,0.00,Wunderground v.1.15,2013-07-28 08:40:00,
2013-07-28 04:45:00,69.0,68.4,29.93,SW,215,3.0,3.0,98,0.00,,,0.00,Wunderground v.1.15,2013-07-28 08:45:00,
2013-07-28 04:51:00,68.9,68.3,29.93,SW,215,2.0,3.0,98,0.00,,,0.00,Wunderground v.1.15,2013-07-28 08:51:00,
2013-07-28 04:56:00,68.9,68.3,29.93,SW,215,2.0,3.0,98,0.00,,,0.00,Wunderground v.1.15,2013-07-28 08:56:00,
2013-07-28 05:02:00,69.0,68.4,29.93,SW,215,2.0,2.0,98,0.00,,,0.00,Wunderground v.1.15,2013-07-28 09:02:00,
2013-07-28 05:07:00,68.9,68.3,29.93,SW,216,1.0,2.0,98,0.00,,,0.00,Wunderground v.1.15,2013-07-28 09:07:00,
2013-07-28 05:13:00,68.9,68.3,29.93,SW,215,1.0,2.0,98,0.00,,,0.00,Wunderground v.1.15,2013-07-28 09:13:00,
2013-07-28 05:19:00,68.9,68.3,29.93,SW,235,1.0,4.0,98,0.00,,,0.00,Wunderground v.1.15,2013-07-28 09:19:00,
2013-07-28 05:25:00,69.0,68.4,29.93,SW,228,3.0,3.0,98,0.00,,,0.00,Wunderground v.1.15,2013-07-28 09:25:00,
2013-07-28 05:31:00,69.1,68.5,29.93,SW,228,3.0,3.0,98,0.00,,,0.00,Wunderground v.1.15,2013-07-28 09:31:00,
2013-07-28 05:37:00,69.1,68.5,29.93,SW,228,2.0,3.0,98,0.00,,,0.00,Wunderground v.1.15,2013-07-28 09:37:00,
2013-07-28 05:43:00,69.2,68.6,29.93,SW,228,1.0,2.0,98,0.00,,,0.00,Wunderground v.1.15,2013-07-28 09:43:00,
2013-07-28 05:48:00,69.2,68.6,29.94,SW,228,1.0,2.0,98,0.00,,,0.00,Wunderground v.1.15,2013-07-28 09:48:00,
2013-07-28 05:54:00,69.3,68.7,29.94,SW,228,2.0,3.0,98,0.00,,,0.00,Wunderground v.1.15,2013-07-28 09:54:00,
2013-07-28 06:00:00,69.3,68.7,29.94,SW,228,3.0,4.0,98,0.00,,,0.00,Wunderground v.1.15,2013-07-28 10:00:00,
2013-07-28 06:06:00,69.3,68.7,29.94,SW,228,3.0,4.0,98,0.00,,,0.00,Wunderground v.1.15,2013-07-28 10:06:00,
2013-07-28 06:12:00,69.3,68.7,29.94,SW,228,2.0,3.0,98,0.00,,,0.00,Wunderground v.1.15,2013-07-28 10:12:00,
2013-07-28 06:18:00,69.2,68.6,29.94,SW,228,2.0,3.0,98,0.00,,,0.00,Wunderground v.1.15,2013-07-28 10:18:00,
2013-07-28 06:24:00,69.0,68.4,29.94,SW,228,1.0,2.0,98,0.00,,,0.00,Wunderground v.1.15,2013-07-28 10:24:00,
2013-07-28 06:30:00,69.1,68.5,29.94,SW,228,1.0,1.0,98,0.00,,,0.00,Wunderground v.1.15,2013-07-28 10:30:00,
2013-07-28 06:36:00,69.0,68.4,29.94,SW,228,0.0,1.0,98,0.00,,,0.00,Wunderground v.1.15,2013-07-28 10:36:00,
2013-07-28 06:42:00,69.0,68.4,29.94,SW,228,0.0,0.0,98,0.00,,,0.00,Wunderground v.1.15,2013-07-28 10:42:00,
2013-07-28 06:47:00,69.1,68.5,29.94,WSW,253,0.0,1.0,98,0.00,,,0.00,Wunderground v.1.15,2013-07-28 10:47:00,
2013-07-28 06:53:00,69.1,68.5,29.94,WSW,253,0.0,0.0,98,0.00,,,0.00,Wunderground v.1.15,2013-07-28 10:53:00,
2013-07-28 06:59:00,69.2,68.6,29.94,WSW,253,0.0,0.0,98,0.00,,,0.00,Wunderground v.1.15,2013-07-28 10:59:00,
2013-07-28 07:05:00,69.2,68.6,29.94,WSW,253,0.0,0.0,98,0.00,,,0.00,Wunderground v.1.15,2013-07-28 11:05:00,
2013-07-28 07:11:00,69.2,68.6,29.94,WSW,253,0.0,0.0,98,0.00,,,0.00,Wunderground v.1.15,2013-07-28 11:11:00,
2013-07-28 07:17:00,69.2,68.6,29.94,WSW,253,0.0,0.0,98,0.00,,,0.00,Wunderground v.1.15,2013-07-28 11:17:00,
2013-07-28 07:23:00,69.2,68.6,29.94,WSW,253,0.0,0.0,98,0.00,,,0.00,Wunderground v.1.15,2013-07-28 11:23:00,
2013-07-28 07:29:00,69.3,68.7,29.94,WSW,253,0.0,0.0,98,0.00,,,0.00,Wunderground v.1.15,2013-07-28 11:29:00,
2013-07-28 07:35:00,69.4,68.8,29.94,WSW,253,0.0,0.0,98,0.00,,,0.00,Wunderground v.1.15,2013-07-28 11:35:00,
2013-07-28 07:40:00,69.5,68.9,29.94,WSW,253,0.0,0.0,98,0.00,,,0.00,Wunderground v.1.15,2013-07-28 11:40:00,
2013-07-28 07:46:00,69.6,69.0,29.94,WSW,253,0.0,0.0,98,0.00,,,0.00,Wunderground v.1.15,2013-07-28 11:46:00,
2013-07-28 07:52:00,69.7,69.1,29.94,WSW,253,0.0,1.0,98,0.00,,,0.00,Wunderground v.1.15,2013-07-28 11:52:00,
2013-07-28 07:57:00,69.8,69.2,29.95,WSW,253,1.0,1.0,98,0.00,,,0.00,Wunderground v.1.15,2013-07-28 11:57:00,
2013-07-28 08:03:00,69.9,69.3,29.95,WSW,253,1.0,1.0,98,0.00,,,0.00,Wunderground v.1.15,2013-07-28 12:03:00,
2013-07-28 08:09:00,70.0,69.4,29.95,WSW,253,1.0,2.0,98,0.00,,,0.00,Wunderground v.1.15,2013-07-28 12:09:00,
2013-07-28 08:14:00,70.0,69.4,29.95,WSW,253,1.0,4.0,98,0.00,,,0.00,Wunderground v.1.15,2013-07-28 12:14:00,
2013-07-28 08:20:00,70.0,69.4,29.95,WSW,253,1.0,1.0,98,0.00,,,0.00,Wunderground v.1.15,2013-07-28 12:20:00,
2013-07-28 08:26:00,70.2,69.6,29.95,WSW,253,1.0,2.0,98,0.00,,,0.00,Wunderground v.1.15,2013-07-28 12:26:00,
2013-07-28 08:32:00,70.3,69.7,29.95,WSW,253,1.0,4.0,98,0.00,,,0.00,Wunderground v.1.15,2013-07-28 12:32:00,
2013-07-28 08:38:00,70.5,69.9,29.95,NE,56,1.0,4.0,98,0.00,,,0.00,Wunderground v.1.15,2013-07-28 12:38:00,
2013-07-28 08:44:00,70.6,70.0,29.95,SSW,202,1.0,3.0,98,0.00,,,0.00,Wunderground v.1.15,2013-07-28 12:44:00,
2013-07-28 08:49:00,70.6,70.0,29.95,SSW,205,2.0,5.0,98,0.00,,,0.00,Wunderground v.1.15,2013-07-28 12:49:00,
2013-07-28 08:55:00,70.9,70.3,29.95,SSW,205,2.0,2.0,98,0.00,,,0.00,Wunderground v.1.15,2013-07-28 12:55:00,
2013-07-28 09:00:00,71.1,70.5,29.95,SW,218,2.0,3.0,98,0.00,,,0.00,Wunderground v.1.15,2013-07-28 13:00:00,
2013-07-28 09:06:00,71.1,70.5,29.95,SW,218,2.0,4.0,98,0.00,,,0.00,Wunderground v.1.15,2013-07-28 13:06:00,
2013-07-28 09:12:00,71.6,71.0,29.95,SSW,213,2.0,2.0,98,0.00,,,0.00,Wunderground v.1.15,2013-07-28 13:12:00,
2013-07-28 09:18:00,72.1,71.5,29.94,SSW,213,2.0,3.0,98,0.00,,,0.00,Wunderground v.1.15,2013-07-28 13:18:00,
2013-07-28 09:23:00,72.4,71.5,29.95,SW,222,3.0,4.0,97,0.00,,,0.00,Wunderground v.1.15,2013-07-28 13:23:00,
2013-07-28 09:29:00,72.8,71.6,29.95,WSW,256,4.0,8.0,96,0.00,,,0.00,Wunderground v.1.15,2013-07-28 13:29:00,
2013-07-28 09:35:00,73.2,72.0,29.94,WSW,258,5.0,7.0,96,0.00,,,0.00,Wunderground v.1.15,2013-07-28 13:35:00,
2013-07-28 09:41:00,73.7,71.9,29.94,West,277,4.0,7.0,94,0.00,,,0.00,Wunderground v.1.15,2013-07-28 13:41:00,
2013-07-28 09:46:00,74.0,72.2,29.94,WSW,247,4.0,7.0,94,0.00,,,0.00,Wunderground v.1.15,2013-07-28 13:46:00,
2013-07-28 09:52:00,74.3,72.1,29.94,WSW,245,4.0,7.0,93,0.00,,,0.00,Wunderground v.1.15,2013-07-28 13:52:00,
2013-07-28 09:57:00,74.7,72.2,29.94,SW,226,5.0,8.0,92,0.00,,,0.00,Wunderground v.1.15,2013-07-28 13:57:00,
2013-07-28 10:03:00,74.9,72.4,29.94,WSW,237,6.0,6.0,92,0.00,,,0.00,Wunderground v.1.15,2013-07-28 14:03:00,
2013-07-28 10:09:00,75.0,72.5,29.95,SW,214,6.0,9.0,92,0.00,,,0.00,Wunderground v.1.15,2013-07-28 14:09:00,
2013-07-28 10:14:00,75.2,72.7,29.95,SW,214,6.0,7.0,92,0.00,,,0.00,Wunderground v.1.15,2013-07-28 14:14:00,
2013-07-28 10:20:00,75.1,72.3,29.95,SW,233,6.0,6.0,91,0.00,,,0.00,Wunderground v.1.15,2013-07-28 14:20:00,
2013-07-28 10:26:00,75.2,72.4,29.95,SW,235,7.0,7.0,91,0.00,,,0.00,Wunderground v.1.15,2013-07-28 14:26:00,
2013-07-28 10:31:00,75.5,72.4,29.95,SW,224,6.0,7.0,90,0.00,,,0.00,Wunderground v.1.15,2013-07-28 14:31:00,
2013-07-28 10:37:00,75.8,72.7,29.96,West,266,6.0,9.0,90,0.00,,,0.00,Wunderground v.1.15,2013-07-28 14:37:00,
2013-07-28 10:43:00,76.4,72.9,29.96,WSW,256,6.0,9.0,89,0.00,,,0.00,Wunderground v.1.15,2013-07-28 14:43:00,
2013-07-28 10:49:00,76.6,72.4,29.96,SSW,208,5.0,9.0,87,0.00,,,0.00,Wunderground v.1.15,2013-07-28 14:49:00,
2013-07-28 10:55:00,76.6,72.8,29.96,SW,219,6.0,9.0,88,0.00,,,0.00,Wunderground v.1.15,2013-07-28 14:55:00,
2013-07-28 11:00:00,76.4,71.9,29.96,SW,224,6.0,6.0,86,0.00,,,0.00,Wunderground v.1.15,2013-07-28 15:00:00,
2013-07-28 11:06:00,76.6,72.4,29.96,SW,223,6.0,7.0,87,0.00,,,0.00,Wunderground v.1.15,2013-07-28 15:06:00,
2013-07-28 11:12:00,77.4,72.9,29.96,West,264,6.0,7.0,86,0.00,,,0.00,Wunderground v.1.15,2013-07-28 15:12:00,
2013-07-28 11:17:00,77.8,73.6,29.96,West,270,5.0,7.0,87,0.00,,,0.00,Wunderground v.1.15,2013-07-28 15:17:00,
2013-07-28 11:23:00,78.2,73.0,29.96,SW,231,5.0,8.0,84,0.00,,,0.00,Wunderground v.1.15,2013-07-28 15:23:00,
2013-07-28 11:28:00,78.2,73.0,29.96,SW,215,5.0,8.0,84,0.00,,,0.00,Wunderground v.1.15,2013-07-28 15:28:00,
2013-07-28 11:34:00,78.1,72.9,29.96,SSW,213,6.0,9.0,84,0.00,,,0.00,Wunderground v.1.15,2013-07-28 15:34:00,
2013-07-28 11:40:00,78.2,73.3,29.96,SSW,207,5.0,5.0,85,0.00,,,0.00,Wunderground v.1.15,2013-07-28 15:40:00,
2013-07-28 11:46:00,78.5,72.9,29.96,SSW,213,5.0,7.0,83,0.00,,,0.00,Wunderground v.1.15,2013-07-28 15:46:00,
2013-07-28 11:52:00,78.9,73.7,29.96,SSW,207,4.0,6.0,84,0.00,,,0.00,Wunderground v.1.15,2013-07-28 15:52:00,
2013-07-28 11:58:00,79.6,73.3,29.96,SW,224,4.0,8.0,81,0.00,,,0.00,Wunderground v.1.15,2013-07-28 15:58:00,
2013-07-28 12:03:00,80.4,73.3,29.96,South,171,5.0,6.0,79,0.00,,,0.00,Wunderground v.1.15,2013-07-28 16:03:00,
2013-07-28 12:09:00,80.7,74.0,29.96,SW,236,5.0,7.0,80,0.00,,,0.00,Wunderground v.1.15,2013-07-28 16:09:00,
2013-07-28 12:15:00,80.9,73.8,29.96,South,178,4.0,5.0,79,0.00,,,0.00,Wunderground v.1.15,2013-07-28 16:15:00,
2013-07-28 12:20:00,80.9,73.0,29.96,West,271,4.0,4.0,77,0.00,,,0.00,Wunderground v.1.15,2013-07-28 16:20:00,
2013-07-28 12:26:00,80.6,73.5,29.96,NNW,338,4.0,4.0,79,0.00,,,0.00,Wunderground v.1.15,2013-07-28 16:26:00,
2013-07-28 12:32:00,80.2,72.7,29.96,West,276,2.0,11.0,78,0.00,,,0.00,Wunderground v.1.15,2013-07-28 16:32:00,
2013-07-28 12:38:00,79.8,72.3,29.96,West,260,2.0,11.0,78,0.00,,,0.00,Wunderground v.1.15,2013-07-28 16:38:00,
2013-07-28 12:44:00,80.2,72.3,29.96,SSW,205,3.0,11.0,77,0.00,,,0.00,Wunderground v.1.15,2013-07-28 16:44:00,
2013-07-28 12:49:00,80.7,73.2,29.96,SW,215,3.0,11.0,78,0.00,,,0.00,Wunderground v.1.15,2013-07-28 16:49:00,
2013-07-28 12:55:00,81.3,72.6,29.96,South,184,3.0,11.0,75,0.00,,,0.00,Wunderground v.1.15,2013-07-28 16:55:00,
2013-07-28 13:00:00,81.4,73.5,29.95,South,178,3.0,4.0,77,0.00,,,0.00,Wunderground v.1.15,2013-07-28 17:00:00,
2013-07-28 13:06:00,82.0,72.5,29.96,SSW,204,4.0,7.0,73,0.00,,,0.00,Wunderground v.1.15,2013-07-28 17:06:00,
2013-07-28 13:12:00,82.2,72.7,29.95,SSW,207,4.0,4.0,73,0.00,,,0.00,Wunderground v.1.15,2013-07-28 17:12:00,
2013-07-28 13:18:00,82.5,72.6,29.95,SSW,207,4.0,7.0,72,0.00,,,0.00,Wunderground v.1.15,2013-07-28 17:18:00,
2013-07-28 13:24:00,82.2,72.7,29.95,SSW,193,3.0,4.0,73,0.00,,,0.00,Wunderground v.1.15,2013-07-28 17:24:00,
2013-07-28 13:30:00,82.3,73.6,29.94,SW,230,2.0,3.0,75,0.00,,,0.00,Wunderground v.1.15,2013-07-28 17:30:00,
2013-07-28 13:35:00,82.5,73.4,29.95,SSE,151,3.0,12.0,74,0.00,,,0.00,Wunderground v.1.15,2013-07-28 17:35:00,
2013-07-28 13:41:00,82.1,72.6,29.95,SSE,159,4.0,12.0,73,0.00,,,0.00,Wunderground v.1.15,2013-07-28 17:41:00,
2013-07-28 13:47:00,82.6,73.1,29.94,SSW,194,4.0,12.0,73,0.00,,,0.00,Wunderground v.1.15,2013-07-28 17:47:00,
2013-07-28 13:52:00,82.5,73.0,29.94,SW,221,3.0,12.0,73,0.00,,,0.00,Wunderground v.1.15,2013-07-28 17:52:00,
2013-07-28 13:58:00,83.1,72.3,29.94,SSW,198,4.0,12.0,70,0.00,,,0.00,Wunderground v.1.15,2013-07-28 17:58:00,
2013-07-28 14:04:00,83.5,73.1,29.94,SW,216,6.0,6.0,71,0.00,,,0.00,Wunderground v.1.15,2013-07-28 18:04:00,
2013-07-28 14:10:00,83.5,71.8,29.94,SW,215,6.0,6.0,68,0.00,,,0.00,Wunderground v.1.15,2013-07-28 18:10:00,
2013-07-28 14:17:00,83.7,70.2,29.94,SSW,194,6.0,8.0,64,0.00,,,0.00,Wunderground v.1.15,2013-07-28 18:17:00,
2013-07-28 14:23:00,84.2,72.5,29.94,South,190,5.0,5.0,68,0.00,,,0.00,Wunderground v.1.15,2013-07-28 18:23:00,
2013-07-28 14:29:00,84.5,72.3,29.93,SSE,157,4.0,5.0,67,0.00,,,0.00,Wunderground v.1.15,2013-07-28 18:29:00,
2013-07-28 14:35:00,84.5,72.8,29.93,West,275,5.0,8.0,68,0.00,,,0.00,Wunderground v.1.15,2013-07-28 18:35:00,
2013-07-28 14:40:00,84.6,72.0,29.93,SW,236,6.0,6.0,66,0.00,,,0.00,Wunderground v.1.15,2013-07-28 18:40:00,
2013-07-28 14:46:00,84.1,71.5,29.93,SW,225,5.0,9.0,66,0.00,,,0.00,Wunderground v.1.15,2013-07-28 18:46:00,
2013-07-28 14:52:00,84.0,72.3,29.93,SW,235,5.0,6.0,68,0.00,,,0.00,Wunderground v.1.15,2013-07-28 18:52:00,
2013-07-28 14:58:00,84.5,71.9,29.93,SW,235,6.0,9.0,66,0.00,,,0.00,Wunderground v.1.15,2013-07-28 18:58:00,
2013-07-28 15:04:00,84.8,72.6,29.93,SW,224,5.0,6.0,67,0.00,,,0.00,Wunderground v.1.15,2013-07-28 19:04:00,
2013-07-28 15:10:00,85.3,73.5,29.93,WSW,258,5.0,5.0,68,0.00,,,0.00,Wunderground v.1.15,2013-07-28 19:10:00,
2013-07-28 15:16:00,85.2,72.1,29.93,SSW,211,6.0,8.0,65,0.00,,,0.00,Wunderground v.1.15,2013-07-28 19:16:00,
2013-07-28 15:22:00,84.4,73.1,29.92,SW,214,6.0,7.0,69,0.00,,,0.00,Wunderground v.1.15,2013-07-28 19:22:00,
2013-07-28 15:28:00,84.8,73.1,29.92,SSW,198,6.0,7.0,68,0.00,,,0.00,Wunderground v.1.15,2013-07-28 19:28:00,
2013-07-28 15:33:00,84.7,73.0,29.92,SSE,156,5.0,7.0,68,0.00,,,0.00,Wunderground v.1.15,2013-07-28 19:33:00,
2013-07-28 15:39:00,85.2,73.4,29.92,South,169,6.0,7.0,68,0.00,,,0.00,Wunderground v.1.15,2013-07-28 19:39:00,
2013-07-28 15:45:00,85.0,72.8,29.92,SW,227,6.0,11.0,67,0.00,,,0.00,Wunderground v.1.15,2013-07-28 19:45:00,
2013-07-28 15:51:00,85.0,73.7,29.92,SSW,202,8.0,9.0,69,0.00,,,0.00,Wunderground v.1.15,2013-07-28 19:51:00,
2013-07-28 15:57:00,85.1,72.9,29.92,WSW,244,8.0,9.0,67,0.00,,,0.00,Wunderground v.1.15,2013-07-28 19:57:00,
2013-07-28 16:03:00,85.3,74.0,29.92,SSE,163,7.0,11.0,69,0.00,,,0.00,Wunderground v.1.15,2013-07-28 20:03:00,
2013-07-28 16:08:00,85.2,73.0,29.92,SSW,200,7.0,11.0,67,0.00,,,0.00,Wunderground v.1.15,2013-07-28 20:08:00,
2013-07-28 16:14:00,84.7,73.4,29.92,South,174,6.0,7.0,69,0.00,,,0.00,Wunderground v.1.15,2013-07-28 20:14:00,
2013-07-28 16:20:00,84.9,73.6,29.92,SW,219,6.0,6.0,69,0.00,,,0.00,Wunderground v.1.15,2013-07-28 20:20:00,
2013-07-28 16:26:00,84.7,73.4,29.91,SSW,213,6.0,10.0,69,0.00,,,0.00,Wunderground v.1.15,2013-07-28 20:26:00,
2013-07-28 16:32:00,85.2,72.6,29.92,SW,217,6.0,12.0,66,0.00,,,0.00,Wunderground v.1.15,2013-07-28 20:32:00,
2013-07-28 16:37:00,85.3,73.1,29.92,SE,145,7.0,12.0,67,0.00,,,0.00,Wunderground v.1.15,2013-07-28 20:37:00,
2013-07-28 16:43:00,85.5,74.2,29.91,WSW,238,6.0,12.0,69,0.00,,,0.00,Wunderground v.1.15,2013-07-28 20:43:00,
2013-07-28 16:48:00,85.7,73.0,29.92,SSW,195,6.0,12.0,66,0.00,,,0.00,Wunderground v.1.15,2013-07-28 20:48:00,
2013-07-28 16:54:00,85.3,73.5,29.92,SSW,208,6.0,12.0,68,0.00,,,0.00,Wunderground v.1.15,2013-07-28 20:54:00,
2013-07-28 16:59:00,85.0,73.3,29.92,South,189,5.0,12.0,68,0.00,,,0.00,Wunderground v.1.15,2013-07-28 20:59:00,
2013-07-28 17:05:00,85.3,73.5,29.91,SE,126,3.0,6.0,68,0.00,,,0.00,Wunderground v.1.15,2013-07-28 21:05:00,
2013-07-28 17:10:00,85.2,73.9,29.91,South,187,4.0,5.0,69,0.00,,,0.00,Wunderground v.1.15,2013-07-28 21:10:00,
2013-07-28 17:15:00,85.2,73.0,29.91,SSW,207,6.0,7.0,67,0.00,,,0.00,Wunderground v.1.15,2013-07-28 21:15:00,
2013-07-28 17:21:00,84.8,73.5,29.91,SSW,198,5.0,5.0,69,0.00,,,0.00,Wunderground v.1.15,2013-07-28 21:21:00,
2013-07-28 17:27:00,84.8,73.5,29.92,SSE,167,5.0,7.0,69,0.00,,,0.00,Wunderground v.1.15,2013-07-28 21:27:00,
2013-07-28 17:32:00,84.8,73.5,29.91,SW,220,6.0,13.0,69,0.00,,,0.00,Wunderground v.1.15,2013-07-28 21:32:00,
2013-07-28 17:37:00,84.3,73.4,29.92,SSW,204,6.0,13.0,70,0.00,,,0.00,Wunderground v.1.15,2013-07-28 21:37:00,
2013-07-28 17:43:00,83.7,73.7,29.92,SSW,194,4.0,13.0,72,0.00,,,0.00,Wunderground v.1.15,2013-07-28 21:43:00,
2013-07-28 17:49:00,83.9,73.9,29.92,SSW,204,4.0,13.0,72,0.00,,,0.00,Wunderground v.1.15,2013-07-28 21:49:00,
2013-07-28 17:54:00,84.2,74.2,29.92,South,187,4.0,13.0,72,0.00,,,0.00,Wunderground v.1.15,2013-07-28 21:54:00,
2013-07-28 18:00:00,83.8,73.0,29.92,SE,130,3.0,3.0,70,0.00,,,0.00,Wunderground v.1.15,2013-07-28 22:00:00,
2013-07-28 18:06:00,83.4,73.8,29.92,West,264,2.0,3.0,73,0.00,,,0.00,Wunderground v.1.15,2013-07-28 22:06:00,
2013-07-28 18:11:00,83.4,73.4,29.92,South,177,2.0,2.0,72,0.00,,,0.00,Wunderground v.1.15,2013-07-28 22:11:00,
2013-07-28 18:17:00,83.4,74.6,29.92,SSW,200,2.0,5.0,75,0.00,,,0.00,Wunderground v.1.15,2013-07-28 22:17:00,
2013-07-28 18:23:00,83.6,74.4,29.92,SSW,211,2.0,2.0,74,0.00,,,0.00,Wunderground v.1.15,2013-07-28 22:23:00,
2013-07-28 18:28:00,83.5,75.1,29.91,SSW,202,2.0,4.0,76,0.00,,,0.00,Wunderground v.1.15,2013-07-28 22:28:00,
2013-07-28 18:34:00,83.4,74.2,29.92,SSW,205,2.0,13.0,74,0.00,,,0.00,Wunderground v.1.15,2013-07-28 22:34:00,
2013-07-28 18:40:00,83.4,74.6,29.92,South,188,2.0,13.0,75,0.00,,,0.00,Wunderground v.1.15,2013-07-28 22:40:00,
2013-07-28 18:45:00,83.5,74.7,29.92,SSW,198,2.0,13.0,75,0.00,,,0.00,Wunderground v.1.15,2013-07-28 22:45:00,
2013-07-28 18:50:00,83.4,74.6,29.92,South,178,3.0,13.0,75,0.00,,,0.00,Wunderground v.1.15,2013-07-28 22:50:00,
2013-07-28 18:55:00,83.3,74.5,29.92,South,178,3.0,13.0,75,0.00,,,0.00,Wunderground v.1.15,2013-07-28 22:55:00,
2013-07-28 19:00:00,83.1,74.4,29.92,South,190,3.0,4.0,75,0.00,,,0.00,Wunderground v.1.15,2013-07-28 23:00:00,
2013-07-28 19:06:00,82.9,74.9,29.93,South,189,4.0,7.0,77,0.00,,,0.00,Wunderground v.1.15,2013-07-28 23:06:00,
2013-07-28 19:12:00,82.4,74.1,29.93,SSW,202,4.0,4.0,76,0.00,,,0.00,Wunderground v.1.15,2013-07-28 23:12:00,
2013-07-28 19:18:00,81.7,73.8,29.93,SSW,194,4.0,4.0,77,0.00,,,0.00,Wunderground v.1.15,2013-07-28 23:18:00,
2013-07-28 19:24:00,81.2,74.1,29.94,SSW,196,3.0,5.0,79,0.00,,,0.00,Wunderground v.1.15,2013-07-28 23:24:00,
2013-07-28 19:30:00,80.8,73.7,29.94,SSW,203,3.0,5.0,79,0.00,,,0.00,Wunderground v.1.15,2013-07-28 23:30:00,
2013-07-28 19:36:00,80.3,73.9,29.94,SSW,197,3.0,6.0,81,0.00,,,0.00,Wunderground v.1.15,2013-07-28 23:36:00,
2013-07-28 19:42:00,79.9,73.5,29.94,South,187,2.0,6.0,81,0.00,,,0.00,Wunderground v.1.15,2013-07-28 23:42:00,
2013-07-28 19:48:00,79.7,73.3,29.94,South,177,1.0,6.0,81,0.00,,,0.00,Wunderground v.1.15,2013-07-28 23:48:00,
2013-07-28 19:54:00,79.6,73.3,29.95,SSW,201,1.0,6.0,81,0.00,,,0.00,Wunderground v.1.15,2013-07-28 23:54:00,
2013-07-28 19:59:00,79.4,73.4,29.95,South,180,1.0,6.0,82,0.00,,,0.00,Wunderground v.1.15,2013-07-28 23:59:00,
2013-07-28 20:05:00,79.1,73.8,29.94,South,186,1.0,2.0,84,0.00,,,0.00,Wunderground v.1.15,2013-07-29 00:05:00,
2013-07-28 20:10:00,78.7,73.8,29.94,SW,222,2.0,2.0,85,0.00,,,0.00,Wunderground v.1.15,2013-07-29 00:10:00,
2013-07-28 20:16:00,78.2,73.7,29.94,SW,217,2.0,3.0,86,0.00,,,0.00,Wunderground v.1.15,2013-07-29 00:16:00,
2013-07-28 20:22:00,77.8,73.6,29.95,SSW,211,2.0,2.0,87,0.00,,,0.00,Wunderground v.1.15,2013-07-29 00:22:00,
2013-07-28 20:27:00,77.6,73.4,29.95,SSW,211,1.0,2.0,87,0.00,,,0.00,Wunderground v.1.15,2013-07-29 00:27:00,
2013-07-28 20:33:00,77.5,73.3,29.95,SSW,211,0.0,8.0,87,0.00,,,0.00,Wunderground v.1.15,2013-07-29 00:33:00,
2013-07-28 20:39:00,77.6,73.1,29.95,SSW,211,0.0,8.0,86,0.00,,,0.00,Wunderground v.1.15,2013-07-29 00:39:00,
2013-07-28 20:45:00,77.6,73.1,29.95,SSW,211,0.0,8.0,86,0.00,,,0.00,Wunderground v.1.15,2013-07-29 00:45:00,
2013-07-28 20:51:00,77.4,73.2,29.95,SSW,211,0.0,8.0,87,0.00,,,0.00,Wunderground v.1.15,2013-07-29 00:51:00,
2013-07-28 20:56:00,77.2,73.0,29.95,SSW,211,0.0,8.0,87,0.00,,,0.00,Wunderground v.1.15,2013-07-29 00:56:00,
2013-07-28 21:02:00,76.8,73.3,29.96,SSW,211,0.0,0.0,89,0.00,,,0.00,Wunderground v.1.15,2013-07-29 01:02:00,
2013-07-28 21:08:00,76.4,72.9,29.96,SSW,211,0.0,0.0,89,0.00,,,0.00,Wunderground v.1.15,2013-07-29 01:08:00,
2013-07-28 21:14:00,76.2,72.7,29.96,SSW,211,0.0,1.0,89,0.00,,,0.00,Wunderground v.1.15,2013-07-29 01:14:00,
2013-07-28 21:20:00,76.1,72.6,29.96,South,186,1.0,1.0,89,0.00,,,0.00,Wunderground v.1.15,2013-07-29 01:20:00,
2013-07-28 21:26:00,76.4,72.9,29.96,South,190,1.0,3.0,89,0.00,,,0.00,Wunderground v.1.15,2013-07-29 01:26:00,
2013-07-28 21:31:00,76.6,72.8,29.96,SSW,198,2.0,4.0,88,0.00,,,0.00,Wunderground v.1.15,2013-07-29 01:31:00,
2013-07-28 21:37:00,76.7,72.9,29.96,SSW,193,2.0,4.0,88,0.00,,,0.00,Wunderground v.1.15,2013-07-29 01:37:00,
2013-07-28 21:44:00,76.7,72.9,29.97,SSW,193,2.0,4.0,88,0.00,,,0.00,Wunderground v.1.15,2013-07-29 01:44:00,
2013-07-28 21:50:00,76.8,72.6,29.96,South,182,2.0,4.0,87,0.00,,,0.00,Wunderground v.1.15,2013-07-29 01:50:00,
2013-07-28 21:56:00,76.9,72.7,29.97,SSW,192,3.0,4.0,87,0.00,,,0.00,Wunderground v.1.15,2013-07-29 01:56:00,
2013-07-28 22:02:00,76.6,72.8,29.97,SSW,207,3.0,4.0,88,0.00,,,0.00,Wunderground v.1.15,2013-07-29 02:02:00,
2013-07-28 22:07:00,76.5,72.7,29.97,SSW,206,3.0,4.0,88,0.00,,,0.00,Wunderground v.1.15,2013-07-29 02:07:00,
2013-07-28 22:14:00,76.4,72.6,29.97,SSW,201,4.0,7.0,88,0.00,,,0.00,Wunderground v.1.15,2013-07-29 02:14:00,
2013-07-28 22:20:00,76.5,72.7,29.97,SSW,198,4.0,5.0,88,0.00,,,0.00,Wunderground v.1.15,2013-07-29 02:20:00,
2013-07-28 22:28:00,76.8,72.6,29.97,SSW,207,2.0,5.0,87,0.00,,,0.00,Wunderground v.1.15,2013-07-29 02:28:00,
2013-07-28 22:33:00,76.8,72.6,29.96,SSW,207,1.0,2.0,87,0.00,,,0.00,Wunderground v.1.15,2013-07-29 02:33:00,
2013-07-28 22:39:00,76.5,72.7,29.96,SSW,207,0.0,2.0,88,0.00,,,0.00,Wunderground v.1.15,2013-07-29 02:39:00,
2013-07-28 22:45:00,76.0,72.5,29.96,SSW,207,0.0,0.0,89,0.00,,,0.00,Wunderground v.1.15,2013-07-29 02:45:00,
2013-07-28 22:51:00,75.7,72.6,29.97,SSW,207,0.0,3.0,90,0.00,,,0.00,Wunderground v.1.15,2013-07-29 02:51:00,
2013-07-28 22:57:00,75.6,72.8,29.97,SSW,207,0.0,3.0,91,0.00,,,0.00,Wunderground v.1.15,2013-07-29 02:57:00,
2013-07-28 23:02:00,75.6,72.8,29.98,SSW,207,0.0,3.0,91,0.00,,,0.00,Wunderground v.1.15,2013-07-29 03:02:00,
2013-07-28 23:08:00,75.8,72.3,29.97,South,184,3.0,6.0,89,0.00,,,0.00,Wunderground v.1.15,2013-07-29 03:08:00,
2013-07-28 23:13:00,76.2,72.4,29.97,SSW,197,6.0,9.0,88,0.00,,,0.00,Wunderground v.1.15,2013-07-29 03:13:00,
2013-07-28 23:19:00,76.0,71.5,29.98,SSW,202,8.0,12.0,86,0.00,,,0.00,Wunderground v.1.15,2013-07-29 03:19:00,
2013-07-28 23:25:00,75.5,70.7,29.98,SSW,196,11.0,22.0,85,0.00,,,0.01,Wunderground v.1.15,2013-07-29 03:25:00,
2013-07-28 23:31:00,73.5,68.0,29.99,NW,317,14.0,14.0,83,0.41,,,0.10,Wunderground v.1.15,2013-07-29 03:31:00,
2013-07-28 23:37:00,72.1,67.7,29.98,South,171,7.0,14.0,86,0.13,,,0.11,Wunderground v.1.15,2013-07-29 03:37:00,
2013-07-28 23:42:00,71.5,67.8,29.99,WSW,244,2.0,11.0,88,0.07,,,0.12,Wunderground v.1.15,2013-07-29 03:42:00,
2013-07-28 23:48:00,70.9,68.8,29.99,NW,309,6.0,11.0,93,0.74,,,0.20,Wunderground v.1.15,2013-07-29 03:48:00,
2013-07-28 23:54:00,70.8,69.0,29.99,North,355,5.0,8.0,94,0.11,,,0.21,Wunderground v.1.15,2013-07-29 03:54:00,
2013-07-28 23:59:00,70.8,69.0,30.00,North,355,2.0,8.0,94,0.06,,,0.21,Wunderground v.1.15,2013-07-29 03:59:00,